Regional Weather Roundup
Issued by NWS

Home | Current Version | Previous Version | Text Only | Print | Product List | Glossary Off
Versions: 1 2 3 4 5 6 7 8 9 10 11 12 13 14 15 16 17 18 19 20 21 22 23 24 25 26 27 28 29 30 31 32 33 34 35 36 37 38 39 40 41 42 43 44 45 46 47 48 49 50

000
ASUS43 KDTX 220201
RWRMI
MICHIGAN HOURLY REGIONAL WEATHER ROUNDUP
NATIONAL WEATHER SERVICE DETROIT/PONTIAC MI
900 PM EST SUN DEC 21 2014

NOTE: "FAIR" INDICATES FEW OR NO CLOUDS BELOW 12,000 FEET WITH NO
SIGNIFICANT WEATHER AND/OR OBSTRUCTION TO VISIBILITY.

MIZ047>049-052>055-059>063-066>070-074>076-081>083-220300-
SOUTHEAST LOWER MICHIGAN

CITY           SKY/WX    TMP DP  RH WIND       PRES   REMARKS
ADRIAN         CLOUDY    30  26  85 E6        30.20F WCI  24
ALMA           PTCLDY    30  28  93 SE5       30.17S FOG     WCI  25
ANN ARBOR      CLOUDY    30  24  78 SE7       30.21S WCI  23
BAD AXE        CLOUDY    31  26  81 S8        30.21S WCI  24
CARO           CLOUDY    32  25  75 SE7       30.19F WCI  26
DETROIT CITY   FAIR      30  22  72 SE3       30.24S
DETROIT        CLOUDY    30  23  75 E3        30.23F
FLINT          CLOUDY    33  23  66 SE14      30.20S WCI  23
GROSSE ILE     PTCLDY    30  25  80 SE7       30.22S WCI  23
HILLSDALE      CLEAR     30  27  90 SE9       30.15F FOG     WCI  21
HOWELL         CLOUDY    30  24  80 SE9       30.18F WCI  21

CITY           SKY/WX    TMP DP  RH WIND       PRES   REMARKS
JACKSON        PTCLDY    29  25  85 SE9       30.17F WCI  20
LAMBERTVILLE   FAIR      28  25  86 CALM      30.22S FOG
LANSING        PTCLDY    31  25  78 SE12      30.17F HAZE    WCI  22
LAPEER         CLOUDY    31  24  75 SE7       30.21S WCI  24
MASON          CLOUDY    30  26  84 SE9       30.18S WCI  22
MONROE         PTCLDY    30  27  86 SE5       30.21S WCI  25
MT. CLEMENS    CLOUDY    31  26  84 SE9       30.22R WCI  23
PONTIAC        CLOUDY    29  22  75 SE8       30.20S WCI  21
PORT HOPE        N/A     32  24  72 S5        30.20F WCI  27
PORT HURON     MOCLDY    25  23  93 CALM      30.24S
TRI CITIES     CLOUDY    34  23  64 SE9       30.19F WCI  27
TROY           CLOUDY    32  24  71 CALM      30.24F
SAGINAW HB     CLOUDY    32  27  80 SE7       30.19S WCI  26
$$
MIZ043>046-050>051-056>058-064>065-071>073-077>080-220300-
SOUTHWEST LOWER MICHIGAN

CITY           SKY/WX    TMP DP  RH WIND       PRES   REMARKS
BATTLE CREEK   PTCLDY    30  24  78 SE7       30.15F WCI  23
BENTON HARBOR  PTCLDY    30  26  85 SE7       30.12S WCI  23
BIG RAPIDS     CLOUDY    32  29  88 S8        30.12S WCI  25
COLDWATER      PTCLDY    30  26  84 MISG      30.14F FOG
FREMONT        CLOUDY    32  26  77 SE7       30.12S WCI  26
HOLLAND        PTCLDY    33  25  72 SE10      30.13S WCI  25
GRAND RAPIDS   MOCLDY    30  24  78 SE12      30.14F WCI  20
IONIA          FAIR      30  27  89 S9        30.15S FOG     WCI  22
KALAMAZOO      PTCLDY    30  24  78 SE7       30.15S HAZE    WCI  23
LUDINGTON      CLOUDY    36  29  77 SE13      30.10S WCI  27
MARSHALL       PTCLDY    28  25  87 SE8       30.15S WCI  20
MOUNT PLEASANT PTCLDY    30  27  89 SE5       30.16S FOG     WCI  25
MUSKEGON       CLOUDY    34  26  72 SE12      30.12F WCI  25
SOUTH HAVEN    PTCLDY    32  26  78 SE7       30.12S WCI  26
$$
MIZ016>042-220300-
NORTHERN LOWER MICHIGAN

CITY           SKY/WX    TMP DP  RH WIND       PRES   REMARKS
ALPENA         CLOUDY    30  26  85 SE6       30.18F WCI  24
BEAVER ISLAND  CLOUDY    34  31  87 S12G17    30.08S WCI  25
BELLAIRE       CLOUDY    33  28  81 S7        30.12S WCI  27
CADILLAC       CLOUDY    30  26  84 SE13      30.09F WCI  20
CHARLEVOIX     CLOUDY    32  28  86 SE8G17    30.13S WCI  25
FRANKFORT      CLOUDY    33  29  85 SE10G16   30.09S WCI  25
GAYLORD        CLOUDY    29  26  89 S13       30.10F FOG     WCI  19
GRAYLING       CLOUDY    29  27  92 SE10      30.13S FOG     WCI  20
HARBOR SPRINGS CLOUDY    32  27  81 S7        30.11S WCI  26
HOUGHTON LAKE  CLOUDY    30  26  85 S12G20    30.13F WCI  20
MANISTEE       CLOUDY    34  25  69 SE7       30.10S WCI  28
OSCODA         CLOUDY    32  27  81 S6        30.19F WCI  26
PELLSTON       CLOUDY    32  27  81 SE8       30.11F WCI  25
ROGERS CITY    CLOUDY    31  29  92 S10       30.16S WCI  22
TRAVERSE CITY  CLOUDY    34  27  75 VRB7G18   30.09F WCI  28
$$
MIZ007>008-015-220300-
EASTERN UPPER MICHIGAN

CITY           SKY/WX    TMP DP  RH WIND       PRES   REMARKS
KINROSS        CLOUDY    32  32 100 SE12      30.10F WCI  23
MACKINAC ISLAN CLOUDY    32  29  86 S12G17    30.10F WCI  23
NEWBERRY       CLOUDY    31  31  97 SE9       30.05F WCI  23
S. S. MARIE    CLOUDY    32  29  88 SE8       30.10F WCI  25
MUNISING         N/A     37  32  82 S12G28    29.97F WCI  29
$$
MIZ004>006-011>014-085-220300-
CENTRAL UPPER MICHIGAN

CITY           SKY/WX    TMP DP  RH WIND       PRES   REMARKS
MANISTIQUE     LGT RAIN  35  33  93 S14G22    30.04S WCI  25
ESCANABA       CLOUDY    36  32  87 S14G20    29.99S WCI  27
MENOMINEE      CLOUDY    36  32  87 S14G20    29.99F WCI  27
SAWYER-GWINN   LGT SNOW  32  32 100 S15       29.92F WCI  22
$$
MIZ001>003-009>011-084-220300-
WESTERN UPPER MICHIGAN

CITY           SKY/WX    TMP DP  RH WIND       PRES   REMARKS
IRON MOUNTAIN  CLOUDY    33  31  92 S17G23    29.91F FOG     WCI  22
HOUGHTON       SNOW      32  31  96 SE7       29.86F VSB 1/4 WCI  26
COPPER HARBOR    N/A     34  32  92 SW9G17    29.89S WCI  27
IRONWOOD       CLOUDY    34  32  93 S9        29.78S WCI  26
$$

ABBREVIATIONS USED IN REMARKS
   TC - TEMPERATURE IN CELSIUS
  WCI - WIND CHILL INDEX
   HX - HEAT INDEX
  VSB - VISIBILITY




USA.gov is the U.S. government's official web portal to all federal, state and local government web resources and services.